Temp
54 54 54 55 55 55 55 55 55 55 56 56 57 57 57 56 56 53 55 58 52 48 53 57 60 57 59 59 55 59 60 58 60 56 57 58 56 58 56 57 56 55 52 51 50 49 48 65 64 58 63 66 65 66
54 54 54 54 54 54 54 54 55 55 55 56 56 57 57 56 55 55 49 60 57 48 52 58 61 62 62 63 59 59 57 56 62 59 57 58 55 55 52 50 56 51 57 56 55 59 62 66 65 69 67 65 66 65
54 54 54 54 54 54 54 54 54 55 55 55 56 56 57 56 56 54 49 53 52 48 53 55 56 66 66 65 70 57 60 62 60 62 62 60 54 58 51 53 55 57 57 56 56 62 63 66 68 68 68 67 69 68
54 54 53 53 53 54 54 54 54 54 55 55 56 56 56 56 55 55 49 55 51 48 43 53 64 59 66 67 65 66 65 61 62 62 60 59 56 60 58 58 57 62 57 58 57 61 66 68 67 69 68 68 68 68
53 53 53 53 53 54 54 54 54 54 54 55 55 56 56 55 54 53 52 54 55 47 43 48 58 63 67 65 63 64 62 60 60 58 57 56 62 58 60 58 57 62 59 57 57 65 63 64 69 70 67 68 68 67
52 53 53 53 53 53 53 54 54 54 54 54 55 55 55 55 54 50 46 57 57 53 47 43 60 57 63 62 61 60 61 59 60 58 58 62 61 61 55 52 60 66 67 67 63 69 67 67 67 69 66 68 69 69
52 52 53 53 53 53 53 53 53 53 53 53 54 54 54 54 51 44 50 51 53 55 44 44 49 60 59 60 59 58 61 60 60 59 56 61 61 59 58 52 62 66 68 67 67 65 62 67 66 69 67 68 66 70
52 52 52 53 53 53 53 53 53 53 53 53 53 53 53 53 51 47 58 53 52 51 48 42 47 53 60 57 55 60 56 58 56 60 58 59 57 59 53 61 64 65 64 64 65 66 65 67 66 66 68 67 66 67
52 52 52 52 53 53 53 53 53 53 53 53 53 53 52 49 46 54 56 55 52 48 43 46 44 43 60 59 59 56 60 52 57 58 58 59 57 52 59 60 61 63 61 60 63 65 65 63 64 64 65 65 66 67
52 52 52 52 52 53 53 53 53 53 53 53 51 45 43 51 56 56 51 46 45 46 46 43 53 44 54 55 56 57 58 57 53 58 58 56 57 63 61 60 60 60 60 61 60 61 61 62 63 63 63 65 66 67
52 52 52 53 52 53 53 53 53 52 52 49 45 45 51 54 52 48 44 40 40 40 47 50 52 46 58 49 51 54 55 56 51 54 55 53 53 57 59 58 61 60 62 62 62 62 62 62 62 64 63 64 66 67
51 52 52 52 53 53 53 53 52 51 50 48 47 50 51 48 47 43 43 45 44 42 50 49 52 51 53 53 51 53 52 51 48 54 52 49 54 56 58 59 61 62 62 62 63 63 64 64 64 64 65 66 66 67
51 51 52 52 53 53 53 52 52 52 51 48 46 42 45 45 35 37 37 42 42 51 51 48 51 54 52 51 50 49 48 50 55 49 50 53 55 58 58 60 60 61 62 61 61 62 64 63 64 64 65 67 66 66
52 52 52 53 53 53 52 52 52 52 48 42 39 33 39 38 37 44 47 50 55 49 47 49 54 53 55 50 51 46 53 54 48 47 48 53 56 57 57 56 56 56 59 59 59 60 60 61 63 64 64 66 66 64
52 52 52 52 53 53 52 52 52 51 46 41 38 35 42 49 50 50 53 51 54 51 50 51 54 54 52 50 51 52 48 47 50 49 52 54 55 56 55 55 57 57 59 59 58 60 60 61 62 60 61 62 66 61
52 52 51 52 53 52 51 51 51 49 46 43 43 42 47 46 46 47 48 48 51 51 52 52 51 49 50 52 51 50 50 47 48 52 52 53 55 54 54 55 58 59 60 60 61 60 59 59 61 60 61 60 60 60
51 48 52 52 52 51 51 51 47 44 43 44 44 47 45 45 44 46 48 49 51 50 48 49 49 49 53 50 49 50 49 50 53 53 55 55 55 56 57 59 56 59 60 60 61 61 61 62 61 57 53 59 57 57
49 52 52 52 52 51 51 48 45 45 42 47 43 45 47 48 46 46 50 51 50 50 50 51 55 51 48 47 48 51 52 52 55 54 54 54 56 57 57 57 59 60 61 61 60 60 62 61 57 55 57 62 60 58
51 53 52 52 52 48 46 46 48 42 45 45 46 45 46 47 50 52 52 52 52 53 53 53 50 48 47 51 52 53 54 54 53 55 55 56 57 56 56 57 60 58 58 59 58 58 57 58 56 56 57 57 54 54
52 52 52 53 52 48 45 46 49 44 43 46 47 46 46 47 50 50 50 51 53 53 50 48 47 49 51 52 53 55 55 56 58 56 56 56 58 58 57 55 54 57 60 63 62 56 63 62 65 61 58 56 54 55
52 51 52 52 49 48 46 47 46 47 47 45 48 48 48 52 51 52 52 54 53 50 46 48 49 51 55 55 56 58 57 60 59 59 54 58 55 56 56 55 60 58 59 59 63 62 61 64 65 66 64 62 62 59
52 53 50 51 46 48 47 49 47 48 46 46 46 48 47 47 49 49 53 51 48 48 50 50 52 53 56 57 57 58 58 59 58 55 50 54 54 51 50 52 56 55 53 60 64 64 63 65 65 63 61 59 59 60
52 51 48 49 45 42 41 49 45 46 43 44 46 46 45 45 47 52 47 48 49 51 51 51 53 56 55 57 57 58 60 58 56 56 58 55 52 54 52 55 64 63 62 61 63 63 62 51 57 61 60 60 60 59
51 47 44 43 42 39 46 44 44 45 46 45 45 43 43 44 50 49 45 46 50 53 51 54 57 56 57 57 54 54 55 58 58 60 61 63 62 59 62 62 63 63 62 64 63 62 61 59 53 61 60 59 58 58
41 41 42 38 45 44 43 46 46 47 46 47 46 47 47 51 48 46 43 46 51 50 52 56 56 55 54 54 54 55 55 56 62 60 61 63 59 62 62 63 62 62 64 64 61 61 60 60 60 60 60 59 58 57
36 46 42 47 48 48 49 46 46 46 48 46 46 50 51 49 45 40 43 48 50 51 52 56 55 54 54 54 57 58 59 61 63 64 62 65 66 66 63 62 62 62 64 64 63 61 60 60 59 58 58 55 46 56
41 46 51 55 52 53 50 51 52 50 46 45 48 48 48 43 41 44 49 53 52 53 54 54 55 53 54 56 55 57 59 56 60 61 61 62 62 63 64 63 61 62 65 65 64 63 60 60 59 59 58 58 58 58
49 49 46 49 51 52 48 48 46 44 47 51 52 45 43 43 42 48 53 56 56 57 55 55 56 56 51 49 58 61 62 61 60 62 64 63 62 61 61 63 61 43 61 64 63 63 62 61 61 60 58 58 59 60
49 50 52 49 49 47 46 45 45 47 50 51 46 44 46 49 52 51 54 58 59 56 56 60 58 61 60 60 59 60 61 63 62 58 57 58 61 60 61 62 63 64 64 62 41 52 58 60 59 59 58 59 59 59
48 49 47 48 44 43 48 48 48 52 53 55 57 56 57 57 57 61 59 59 58 61 62 62 61 62 60 61 59 58 58 59 60 60 58 56 56 59 60 60 62 63 63 63 62 59 44 56 53 60 58 59 58 58
50 54 51 50 49 50 53 56 59 60 60 59 59 57 53 56 62 62 61 62 63 63 63 61 61 62 62 61 59 59 56 58 58 58 59 60 60 59 58 59 61 62 62 62 62 62 61 59 58 57 56 55 55 54
53 49 50 50 51 54 54 53 54 54 56 56 56 58 59 58 56 61 62 64 64 64 54 60 63 61 61 61 60 59 48 59 59 59 59 60 60 59 61 62 62 62 62 61 61 61 58 57 57 56 55 54 54 54
53 54 53 53 52 53 56 54 52 53 54 53 55 58 59 58 54 61 63 62 61 63 64 64 63 62 60 61 60 59 51 60 50 40 41 40 40 47 60 63 62 61 60 59 59 58 56 55 55 54 53 53 53 53
MSLP
1020.28 1020.36 1020.42 1020.40 1020.40 1020.48 1020.45 1020.38 1020.43 1020.33 1020.34 1020.36 1020.38 1020.42 1020.44 1020.47 1020.39 1020.42 1019.57 1019.42 1019.30 1018.46 1017.18 1016.42 1015.75 1015.15 1014.48 1014.06 1013.49 1013.44 1013.17 1012.80 1012.08 1011.34 1010.87 1010.44 1010.27 1010.40 1010.49 1010.44 1010.50 1010.65 1010.88 1010.66 1010.43 1009.61 1008.74 1008.60 1008.76 1008.56 1008.45 1008.26 1008.50 1008.44
1019.47 1019.57 1019.63 1019.68 1019.72 1019.80 1019.85 1019.83 1019.92 1019.92 1019.91 1019.96 1020.00 1019.98 1020.06 1020.17 1020.24 1020.21 1019.71 1018.84 1019.07 1019.01 1017.54 1016.59 1015.97 1015.65 1014.93 1014.65 1014.33 1013.80 1013.32 1013.08 1012.43 1011.73 1011.44 1011.18 1010.79 1010.92 1010.75 1010.36 1010.89 1010.80 1010.52 1010.27 1010.09 1008.80 1008.68 1008.65 1008.46 1008.20 1008.31 1008.23 1008.35 1008.36
1018.61 1018.74 1018.83 1018.90 1019.01 1019.11 1019.16 1019.22 1019.43 1019.48 1019.41 1019.47 1019.52 1019.59 1019.58 1019.71 1019.87 1020.14 1019.88 1019.29 1019.02 1018.63 1016.94 1015.79 1014.54 1013.83 1014.31 1014.05 1013.75 1013.73 1013.25 1013.09 1012.76 1012.79 1011.96 1011.52 1011.15 1011.11 1010.70 1010.46 1010.51 1010.61 1010.73 1010.34 1009.81 1008.65 1008.37 1008.21 1008.12 1008.05 1008.09 1008.00 1007.98 1008.20
1017.89 1017.96 1018.03 1018.21 1018.30 1018.38 1018.53 1018.73 1018.80 1018.85 1018.94 1018.94 1019.04 1019.09 1019.06 1019.26 1019.41 1019.63 1019.66 1018.96 1018.93 1018.42 1016.90 1014.25 1013.82 1013.56 1013.17 1013.16 1013.05 1012.95 1012.72 1013.50 1013.23 1013.04 1012.23 1011.52 1011.20 1011.37 1010.86 1010.74 1010.45 1010.03 1010.48 1009.74 1009.26 1008.46 1008.06 1007.54 1007.91 1007.80 1007.72 1007.84 1007.91 1007.94
1017.12 1017.21 1017.37 1017.52 1017.64 1017.68 1017.90 1018.00 1018.24 1018.36 1018.40 1018.43 1018.50 1018.60 1018.76 1018.87 1018.97 1019.17 1019.08 1018.65 1018.56 1018.56 1016.80 1014.71 1013.73 1012.51 1012.03 1012.20 1012.27 1012.36 1012.79 1013.06 1012.94 1012.74 1012.12 1011.42 1011.27 1011.47 1011.19 1011.08 1009.77 1009.66 1009.32 1009.16 1008.13 1007.92 1008.19 1007.71 1007.54 1007.71 1007.55 1007.49 1007.58 1007.67
1016.75 1016.74 1016.78 1016.81 1016.95 1017.18 1017.38 1017.48 1017.70 1017.80 1017.84 1017.96 1018.06 1018.20 1018.42 1018.50 1018.69 1018.97 1018.07 1017.02 1017.40 1017.88 1017.41 1015.31 1012.72 1011.44 1010.98 1011.09 1011.35 1011.69 1012.10 1012.75 1012.74 1012.30 1011.65 1011.10 1010.99 1011.00 1010.50 1009.88 1008.85 1008.63 1008.59 1008.60 1008.10 1008.11 1008.23 1007.90 1007.56 1007.41 1007.35 1007.28 1007.38 1007.42
1016.21 1016.18 1016.14 1016.27 1016.43 1016.61 1016.88 1017.01 1017.21 1017.33 1017.44 1017.57 1017.64 1017.84 1017.98 1018.10 1018.46 1018.63 1017.44 1017.44 1017.66 1017.70 1017.26 1015.27 1012.50 1010.78 1010.63 1010.69 1011.00 1011.35 1011.72 1011.85 1011.81 1011.72 1011.21 1010.50 1010.54 1010.72 1010.03 1008.83 1008.44 1008.28 1008.10 1008.03 1008.15 1008.33 1008.01 1007.45 1007.37 1007.26 1007.22 1007.26 1007.37 1007.37
1015.71 1015.62 1015.68 1015.79 1015.87 1016.10 1016.29 1016.58 1016.80 1016.96 1017.10 1017.22 1017.36 1017.47 1017.60 1017.80 1018.12 1017.82 1016.29 1016.62 1017.29 1017.09 1016.78 1015.22 1012.31 1010.90 1010.30 1009.83 1010.02 1010.40 1010.76 1011.24 1011.41 1010.55 1010.62 1010.00 1010.61 1010.34 1009.13 1008.02 1007.83 1007.86 1007.92 1007.81 1007.70 1007.88 1007.64 1007.32 1007.43 1007.14 1007.19 1007.30 1007.46 1007.52
1015.14 1015.15 1015.18 1015.26 1015.46 1015.67 1015.90 1016.19 1016.44 1016.62 1016.76 1016.96 1017.12 1017.19 1017.33 1017.37 1016.87 1015.87 1015.90 1016.36 1016.69 1017.19 1015.63 1014.00 1012.36 1010.74 1010.04 1009.42 1009.50 1009.88 1009.50 1010.01 1010.46 1009.61 1009.45 1009.54 1009.37 1008.89 1007.93 1007.99 1007.93 1007.95 1008.10 1008.07 1007.93 1007.61 1007.43 1007.22 1007.03 1007.05 1007.27 1007.43 1007.51 1007.59
1014.60 1014.61 1014.63 1014.73 1014.92 1015.21 1015.47 1015.79 1016.06 1016.29 1016.59 1016.76 1016.98 1017.14 1016.31 1015.50 1015.29 1015.66 1016.18 1016.52 1016.49 1015.95 1015.26 1013.13 1012.21 1011.36 1010.68 1009.47 1008.88 1008.83 1008.63 1008.43 1008.92 1008.81 1009.31 1008.87 1008.03 1007.82 1008.10 1008.27 1008.41 1008.48 1008.53 1008.35 1007.68 1007.18 1007.34 1007.14 1007.13 1007.15 1007.31 1007.46 1007.57 1007.59
1014.02 1014.04 1014.07 1014.14 1014.34 1014.72 1015.06 1015.47 1015.84 1016.27 1016.58 1016.67 1016.45 1015.87 1015.37 1015.19 1015.18 1015.15 1014.91 1015.10 1015.20 1014.37 1013.15 1012.03 1011.46 1010.95 1010.35 1009.96 1008.99 1008.76 1008.06 1008.15 1008.09 1008.39 1008.42 1008.10 1007.73 1007.85 1008.27 1008.41 1008.59 1008.71 1008.65 1008.39 1008.15 1007.96 1007.66 1007.40 1007.27 1007.17 1007.42 1007.49 1007.50 1007.64
1013.43 1013.40 1013.33 1013.52 1013.94 1014.33 1014.79 1015.24 1015.70 1016.16 1016.20 1016.26 1016.29 1015.83 1015.33 1015.01 1014.45 1014.21 1013.35 1013.19 1012.88 1012.01 1011.31 1010.82 1010.52 1010.64 1010.19 1010.15 1009.18 1008.54 1007.94 1008.10 1007.81 1008.28 1008.13 1007.56 1007.95 1008.51 1008.57 1008.54 1008.65 1008.56 1008.34 1008.22 1008.10 1007.84 1007.54 1007.30 1007.22 1007.17 1007.25 1007.28 1007.46 1007.56
1012.96 1013.01 1013.15 1013.47 1013.84 1014.25 1014.66 1015.10 1015.64 1015.95 1016.07 1016.19 1015.98 1015.56 1014.73 1014.19 1013.84 1013.10 1012.01 1011.49 1011.12 1010.45 1010.29 1010.23 1009.97 1009.76 1010.18 1009.94 1009.08 1008.63 1007.92 1007.65 1007.94 1007.75 1007.31 1007.66 1008.28 1008.60 1008.79 1008.80 1008.73 1008.51 1008.34 1008.29 1008.17 1007.89 1007.53 1007.45 1007.44 1007.41 1007.34 1007.50 1007.68 1007.84
1012.60 1012.80 1013.11 1013.40 1013.81 1014.27 1014.71 1015.13 1015.58 1015.93 1016.21 1015.95 1015.54 1015.09 1014.18 1013.18 1012.83 1011.59 1010.77 1010.30 1010.09 1010.29 1010.14 1009.88 1009.29 1009.02 1009.05 1008.89 1008.57 1008.54 1007.81 1007.43 1007.38 1007.26 1007.42 1007.93 1008.35 1008.68 1008.88 1008.96 1008.75 1008.51 1008.52 1008.30 1007.94 1007.83 1007.64 1007.63 1007.50 1007.61 1007.64 1007.69 1007.86 1008.08
1012.55 1012.86 1013.15 1013.51 1013.86 1014.27 1014.72 1015.19 1015.58 1015.80 1015.78 1015.51 1015.44 1014.05 1012.72 1011.83 1011.39 1010.96 1010.60 1010.30 1009.94 1010.03 1009.94 1009.46 1008.91 1008.67 1008.27 1008.25 1008.11 1007.46 1007.31 1007.07 1007.14 1007.50 1008.05 1008.33 1008.70 1008.73 1009.00 1009.09 1008.96 1008.78 1008.62 1008.51 1008.50 1008.30 1007.96 1007.73 1007.81 1008.12 1008.23 1008.02 1008.07 1008.28
1012.72 1013.10 1013.36 1013.55 1013.93 1014.42 1014.85 1015.33 1015.66 1015.65 1015.46 1014.97 1013.91 1012.88 1012.05 1011.51 1010.87 1010.67 1010.25 1009.90 1009.77 1009.61 1009.55 1009.30 1008.32 1007.81 1007.38 1007.17 1007.02 1006.87 1006.93 1007.28 1007.95 1008.43 1008.83 1008.90 1008.95 1009.23 1009.25 1009.21 1009.10 1008.99 1008.86 1008.76 1008.67 1008.54 1008.46 1008.29 1008.23 1008.41 1008.52 1008.68 1008.65 1008.79
1012.75 1013.10 1013.32 1013.70 1014.21 1014.64 1015.01 1015.11 1015.21 1015.19 1014.62 1013.67 1012.86 1012.29 1012.02 1011.57 1010.97 1010.40 1010.17 1009.73 1009.33 1009.45 1008.84 1008.36 1007.49 1007.22 1007.26 1007.03 1007.11 1007.41 1007.66 1008.35 1008.56 1008.95 1009.23 1009.38 1009.35 1009.36 1009.37 1009.29 1009.40 1009.22 1009.05 1008.94 1008.84 1008.73 1008.71 1008.84 1008.94 1008.74 1009.16 1009.64 1009.35 1009.41
1012.93 1013.11 1013.52 1014.10 1014.52 1014.97 1014.96 1014.88 1014.77 1014.38 1013.67 1012.88 1012.52 1011.77 1011.59 1011.15 1010.70 1010.15 1009.58 1009.48 1009.50 1009.12 1008.71 1007.73 1007.46 1007.25 1007.40 1007.61 1007.75 1008.27 1008.72 1009.09 1009.18 1009.56 1009.74 1009.79 1009.73 1009.65 1009.62 1009.63 1009.63 1009.53 1009.41 1009.33 1009.35 1009.32 1009.23 1009.31 1009.46 1009.86 1009.92 1009.91 1009.98 1010.36
1012.95 1013.33 1013.80 1014.32 1014.55 1014.57 1014.61 1014.73 1014.49 1013.69 1012.72 1012.30 1011.89 1011.60 1011.20 1010.60 1010.04 1009.67 1009.45 1009.22 1009.15 1008.92 1008.48 1008.06 1008.05 1008.23 1008.70 1008.84 1008.76 1008.76 1009.20 1009.23 1009.46 1009.89 1010.10 1010.15 1010.12 1010.05 1010.13 1010.09 1009.95 1009.98 1009.89 1009.79 1009.81 1009.86 1009.93 1009.88 1010.17 1010.38 1010.61 1010.60 1010.56 1010.95
1013.47 1013.86 1014.13 1014.34 1014.51 1014.38 1014.23 1014.13 1014.02 1013.23 1012.20 1011.68 1011.37 1010.98 1010.51 1009.76 1009.59 1009.36 1009.18 1009.00 1008.87 1008.82 1008.84 1009.11 1009.47 1009.61 1009.59 1009.70 1009.71 1009.56 1009.58 1009.64 1009.66 1009.81 1010.14 1010.43 1010.56 1010.58 1010.57 1010.32 1010.10 1010.14 1010.11 1009.98 1009.95 1009.85 1009.71 1009.81 1009.93 1010.45 1010.75 1010.92 1011.03 1011.45
1014.02 1014.47 1014.71 1014.69 1014.36 1014.10 1013.67 1013.21 1013.02 1012.46 1011.88 1011.56 1011.08 1010.76 1010.25 1009.70 1009.39 1009.25 1009.18 1009.11 1009.03 1009.80 1010.33 1010.63 1010.43 1010.17 1010.12 1010.30 1010.23 1010.01 1010.00 1009.89 1009.90 1009.97 1010.58 1010.70 1011.16 1010.99 1010.91 1010.96 1010.76 1010.61 1010.43 1010.34 1010.07 1010.12 1010.00 1010.10 1010.32 1010.46 1010.75 1011.09 1011.52 1012.03
1014.08 1014.37 1014.55 1014.52 1014.21 1013.52 1013.10 1012.84 1012.73 1012.41 1012.10 1011.58 1011.02 1010.66 1010.21 1010.20 1010.00 1010.10 1010.04 1009.92 1010.38 1011.54 1011.16 1011.20 1010.90 1010.78 1010.58 1010.46 1010.45 1010.39 1010.43 1010.44 1010.61 1010.78 1011.02 1011.26 1011.53 1011.57 1011.63 1011.60 1011.21 1011.10 1011.07 1010.90 1010.66 1010.60 1010.69 1010.74 1010.94 1011.23 1011.64 1012.12 1012.39 1012.73
1014.26 1014.31 1014.26 1014.05 1013.75 1013.36 1013.02 1012.69 1012.43 1012.06 1011.75 1011.43 1011.01 1010.55 1010.48 1010.50 1010.78 1010.54 1011.00 1011.57 1011.87 1011.99 1011.92 1011.67 1011.37 1011.18 1011.06 1011.05 1011.01 1011.01 1010.96 1011.00 1011.21 1011.35 1011.52 1011.83 1011.95 1012.02 1011.96 1011.82 1011.50 1011.33 1011.22 1011.34 1011.31 1011.20 1011.25 1011.68 1011.77 1011.90 1012.38 1012.60 1012.85 1013.12
1014.35 1014.29 1013.98 1013.75 1013.41 1012.83 1012.42 1012.15 1012.04 1011.56 1011.26 1011.16 1010.67 1011.30 1011.37 1011.39 1011.12 1011.17 1011.93 1012.44 1012.55 1012.22 1012.11 1011.83 1011.50 1011.43 1011.38 1011.46 1011.55 1011.62 1011.57 1011.52 1011.53 1011.64 1011.76 1011.67 1011.75 1012.14 1012.14 1012.06 1011.98 1011.96 1011.97 1011.83 1011.74 1011.76 1011.82 1012.06 1012.24 1012.32 1012.62 1012.89 1013.20 1013.35
1014.27 1014.08 1013.85 1013.10 1012.64 1012.21 1011.83 1011.63 1011.37 1011.14 1011.13 1011.13 1011.12 1011.55 1011.62 1011.63 1011.58 1012.18 1012.85 1013.10 1012.89 1012.69 1012.45 1012.13 1011.91 1011.90 1011.94 1011.99 1011.97 1011.96 1011.78 1011.83 1011.45 1011.55 1011.94 1011.98 1012.11 1012.14 1012.23 1012.27 1012.36 1012.41 1012.22 1011.90 1012.07 1012.13 1012.37 1012.54 1012.71 1012.90 1013.14 1013.35 1013.53 1013.67
1012.92 1012.81 1012.64 1011.88 1011.75 1011.40 1011.07 1011.06 1011.23 1011.22 1011.10 1011.35 1011.74 1011.87 1011.83 1011.91 1012.45 1013.12 1013.57 1013.55 1013.30 1013.13 1012.97 1012.58 1012.14 1012.41 1012.57 1012.61 1012.43 1012.18 1012.13 1012.22 1012.01 1011.97 1012.28 1012.22 1012.11 1011.98 1012.09 1012.20 1012.24 1012.52 1012.68 1012.58 1012.52 1012.61 1012.83 1013.05 1013.23 1013.42 1013.65 1013.98 1014.20 1013.93
1012.71 1012.37 1011.97 1011.89 1011.56 1011.28 1011.33 1011.48 1011.45 1011.39 1011.54 1011.70 1011.84 1011.97 1012.13 1012.64 1013.56 1013.97 1013.97 1013.81 1013.61 1013.50 1013.31 1013.06 1012.91 1013.00 1013.11 1012.99 1013.02 1012.94 1012.72 1012.56 1012.49 1012.58 1012.78 1012.84 1012.85 1012.86 1012.68 1012.68 1012.78 1013.15 1013.14 1013.02 1013.03 1013.11 1013.25 1013.45 1013.62 1013.78 1013.93 1014.11 1014.24 1014.29
1012.91 1012.84 1012.46 1012.18 1011.67 1011.71 1011.78 1011.96 1012.18 1012.37 1012.31 1012.35 1012.23 1012.63 1013.19 1013.58 1013.85 1014.23 1014.11 1013.99 1013.81 1013.68 1013.64 1013.52 1013.50 1013.43 1013.50 1013.45 1013.28 1013.18 1013.20 1013.17 1013.21 1013.13 1013.07 1013.17 1013.38 1013.50 1013.53 1013.43 1013.59 1013.73 1013.53 1013.50 1013.56 1013.66 1013.75 1013.87 1013.97 1014.08 1014.18 1014.22 1014.35 1014.46
1013.13 1013.03 1012.58 1012.27 1012.16 1012.40 1012.58 1012.54 1012.60 1012.81 1012.86 1012.49 1012.61 1013.03 1013.75 1014.06 1014.24 1014.07 1013.87 1013.87 1013.74 1013.88 1013.76 1013.64 1013.79 1013.73 1013.77 1013.87 1013.94 1013.91 1013.75 1013.42 1013.13 1013.11 1013.12 1013.20 1013.25 1013.64 1013.93 1013.81 1013.71 1013.73 1013.74 1013.99 1014.33 1014.30 1014.43 1014.39 1014.41 1014.41 1014.46 1014.44 1014.49 1014.45
1013.54 1013.30 1012.94 1012.96 1012.93 1013.20 1013.36 1013.38 1013.15 1013.03 1012.89 1012.75 1012.73 1013.16 1013.57 1013.75 1013.97 1013.85 1013.67 1013.64 1013.73 1013.61 1013.72 1013.82 1013.89 1013.75 1013.85 1013.87 1014.08 1014.29 1014.45 1014.30 1014.10 1013.82 1013.78 1013.97 1014.23 1014.39 1014.24 1014.09 1013.96 1014.00 1014.09 1014.17 1014.32 1014.69 1014.96 1014.76 1014.80 1014.60 1014.59 1014.47 1014.36 1014.26
1013.91 1013.40 1013.47 1013.55 1013.61 1013.79 1013.67 1013.47 1013.13 1012.94 1012.83 1012.93 1013.09 1013.19 1013.61 1013.76 1013.71 1013.87 1013.84 1013.83 1013.81 1013.85 1013.85 1013.95 1014.01 1014.12 1014.08 1014.21 1014.33 1014.35 1014.67 1015.06 1015.08 1015.04 1014.95 1014.92 1014.87 1014.81 1014.71 1014.61 1014.49 1014.47 1014.49 1014.53 1014.58 1014.65 1014.76 1014.76 1014.75 1014.72 1014.65 1014.62 1014.56 1014.47
1014.14 1014.21 1013.98 1013.80 1013.85 1013.89 1013.50 1013.51 1013.42 1013.36 1013.31 1013.27 1013.38 1013.38 1013.50 1013.53 1013.63 1013.76 1014.15 1013.99 1013.81 1013.79 1014.20 1014.15 1014.13 1014.40 1014.73 1014.90 1015.08 1015.24 1015.37 1015.43 1015.53 1015.60 1015.56 1015.46 1015.43 1015.39 1015.19 1015.04 1014.94 1014.91 1014.87 1014.85 1014.87 1014.87 1014.94 1014.93 1014.86 1014.85 1014.78 1014.79 1014.74 1014.61
1014.45 1014.23 1014.15 1013.97 1013.87 1013.80 1013.79 1013.62 1013.59 1013.54 1013.44 1013.39 1013.35 1013.39 1013.47 1013.54 1013.67 1013.90 1014.27 1014.37 1014.28 1014.07 1014.04 1014.26 1014.48 1014.76 1015.08 1015.19 1015.40 1015.67 1015.87 1015.92 1016.09 1016.10 1016.11 1016.09 1016.04 1015.93 1015.66 1015.48 1015.41 1015.30 1015.17 1015.07 1014.97 1014.95 1014.97 1015.04 1015.01 1015.05 1014.98 1014.92 1014.79 1014.63
Wind_Speed
16 16 16 15 15 14 13 14 11 11 10 9 9 8 8 7 9 4 4 4 3 3 8 6 5 8 6 3 5 3 4 4 2 5 6 5 6 6 5 2 4 5 4 4 3 5 4 3 4 3 3 2 4 5
16 16 15 15 15 14 15 14 12 9 11 9 9 7 7 5 7 6 3 2 3 4 6 5 12 16 11 12 4 2 4 3 2 1 1 1 3 3 3 4 2 5 5 2 6 2 2 2 9 9 6 10 6 6
16 16 15 15 14 15 15 15 13 11 10 10 9 8 5 6 4 5 3 3 2 3 7 13 16 16 15 18 15 5 3 4 4 3 3 1 5 3 4 4 3 4 4 4 3 3 3 10 10 9 8 9 8 5
15 15 14 14 14 14 14 14 13 10 10 11 9 9 7 6 4 7 3 3 2 3 5 6 4 8 4 11 16 18 14 1 1 2 3 3 4 3 2 3 5 3 7 5 6 13 11 8 5 7 6 7 6 4
12 12 13 13 15 15 14 13 12 12 11 10 8 7 7 6 5 4 4 5 6 3 4 8 17 23 21 16 13 14 14 12 6 4 4 5 2 4 2 2 12 8 9 8 12 12 11 11 10 11 12 7 5 3
12 12 13 14 12 12 12 10 10 11 9 8 7 6 6 6 1 1 3 7 9 5 4 5 5 6 7 9 15 16 12 7 6 5 4 4 3 5 4 5 8 10 12 13 17 14 10 13 16 16 14 7 6 5
12 12 10 10 11 11 11 10 9 9 8 7 8 6 6 7 3 4 3 1 3 6 3 5 6 3 2 6 4 5 10 5 5 4 5 4 4 6 4 15 9 12 14 15 12 10 13 17 10 9 5 6 8 4
11 10 10 10 10 11 10 9 9 8 8 8 8 8 8 4 5 6 8 8 5 3 2 5 6 4 5 4 5 4 6 5 6 4 2 4 4 4 7 11 13 11 10 10 7 7 16 16 11 9 7 7 7 4
11 11 10 10 10 10 10 9 9 8 8 6 5 2 1 5 4 4 4 13 2 2 4 4 3 3 1 2 2 4 5 6 4 6 4 6 5 7 10 9 8 5 5 9 11 9 6 5 5 4 7 7 6 5
12 12 12 11 10 10 11 10 8 6 4 4 1 3 4 4 3 9 2 4 6 4 5 5 1 4 4 2 4 4 3 4 5 4 5 5 7 9 7 5 5 4 4 6 8 4 7 6 4 4 7 5 6 5
12 13 13 14 13 11 11 10 7 8 5 2 4 3 2 2 3 3 4 3 3 4 5 4 7 5 3 3 1 1 3 3 4 4 5 4 3 1 3 2 1 3 4 4 3 4 6 7 7 5 5 7 5 6
12 12 10 10 10 11 11 10 12 5 2 1 2 4 2 3 4 4 4 4 5 5 5 4 4 5 2 2 4 2 1 3 3 6 4 3 2 4 4 3 3 5 5 5 3 6 8 6 4 3 4 4 4 4
9 9 8 8 9 10 10 11 11 7 4 3 2 2 3 2 1 5 5 4 3 3 3 3 3 3 3 4 1 0 5 2 6 4 3 2 2 4 4 5 5 6 6 5 5 6 6 2 1 2 3 2 2 5
7 7 7 9 10 11 9 12 12 5 2 3 1 2 5 5 5 7 6 2 0 1 2 2 2 4 3 4 2 4 1 4 4 3 2 3 5 2 4 3 5 7 6 5 7 8 1 3 1 5 4 3 5 5
7 8 10 9 12 11 12 13 10 1 1 1 1 4 7 4 4 4 6 5 4 2 2 3 3 3 3 3 4 2 4 2 1 3 2 2 1 2 5 6 6 5 5 5 5 5 5 4 5 7 7 4 4 4
12 10 3 13 12 13 14 11 3 1 2 4 6 4 2 5 2 2 3 3 0 1 2 2 3 4 3 1 4 1 3 2 3 3 2 0 1 3 2 2 1 3 4 4 5 4 4 2 5 8 9 6 7 7
6 2 11 13 13 15 13 3 2 4 4 4 3 3 4 5 6 4 3 1 1 2 3 2 4 2 2 2 2 3 3 3 4 3 2 3 5 4 3 4 3 4 6 6 7 8 8 8 8 9 10 5 7 10
2 7 14 14 10 6 2 2 2 3 5 3 3 3 2 3 4 5 1 1 2 2 3 0 1 1 3 2 3 3 3 3 5 5 4 4 5 5 5 5 5 6 7 8 9 10 11 13 12 7 8 10 11 10
8 8 14 14 3 2 3 3 3 4 4 2 3 2 3 4 5 5 3 2 2 1 1 1 4 4 3 3 3 3 3 2 3 3 3 5 5 5 5 6 7 6 6 5 4 4 4 7 5 5 6 5 7 5
12 10 12 8 4 1 3 2 2 3 3 1 2 2 3 3 2 2 2 2 1 1 5 4 4 2 3 3 4 3 3 4 4 5 5 5 5 6 5 3 2 4 5 5 5 3 3 5 5 4 3 4 5 6
6 3 4 2 2 3 3 2 3 3 3 3 2 4 3 2 3 3 4 1 5 5 3 3 2 3 5 2 1 2 3 2 4 4 4 7 5 5 5 4 4 5 5 4 4 5 5 5 4 4 5 7 8 8
3 6 1 2 2 2 3 0 2 2 2 3 4 3 1 2 4 5 4 5 3 3 3 3 3 3 1 3 4 5 7 8 7 6 6 5 4 3 4 3 2 5 5 5 4 4 4 4 4 5 7 8 7 7
5 1 1 2 3 2 4 1 2 1 3 3 3 3 3 3 3 3 4 3 2 3 2 2 2 4 5 5 6 7 5 7 5 5 6 6 3 4 3 4 5 6 6 6 5 5 4 3 6 7 8 8 7 7
4 1 3 1 2 3 2 3 3 3 2 1 2 3 4 3 4 4 4 3 3 4 4 4 4 5 6 8 5 4 4 3 4 5 4 5 6 5 4 5 4 5 5 3 4 5 5 6 6 7 7 7 6 5
3 4 4 5 3 3 3 4 2 2 4 4 3 4 3 3 3 4 3 4 5 5 5 3 5 4 6 5 3 4 3 1 4 6 3 4 4 4 4 4 5 5 4 5 5 5 6 6 6 7 6 6 6 6
1 4 1 4 2 1 3 4 4 5 3 3 4 2 2 3 5 3 2 3 4 4 4 3 4 4 5 4 2 2 2 1 2 2 3 1 1 2 3 3 4 5 5 4 3 5 5 5 5 6 6 7 4 5
6 6 3 2 3 1 4 3 3 4 4 4 3 3 3 4 5 3 2 3 3 3 3 3 2 3 4 4 3 4 3 2 2 4 4 4 4 4 3 3 4 4 3 4 4 4 4 4 4 3 4 3 4 4
4 5 6 7 5 4 4 3 4 4 3 3 1 4 3 2 1 1 0 1 3 3 4 4 5 4 3 3 4 5 6 6 6 6 6 7 6 5 5 4 4 5 4 5 4 4 4 3 2 1 0 0 1 1
4 6 2 7 4 4 3 3 2 2 2 1 2 3 3 2 0 3 1 2 2 3 3 5 5 5 5 5 5 5 5 3 1 1 3 3 3 5 6 4 3 2 3 5 8 6 5 4 4 4 3 2 3 3
6 4 3 5 5 7 5 3 2 3 3 3 3 5 3 2 3 2 1 3 5 4 4 4 4 4 5 4 5 6 6 6 6 4 3 4 4 4 5 4 1 2 2 3 4 5 3 2 1 1 2 3 3 4
3 4 4 5 5 4 4 3 2 2 3 5 4 6 3 1 2 4 5 4 4 4 4 4 4 4 5 5 5 4 5 5 6 7 5 4 4 5 5 4 3 2 2 2 2 2 2 3 3 4 4 6 6 6
4 5 3 4 4 5 3 4 3 3 3 3 3 3 2 2 3 3 3 2 1 1 2 1 2 4 4 4 5 5 5 4 4 4 5 5 5 5 4 4 4 3 3 3 2 2 3 4 4 5 5 6 7 9
2 2 2 1 2 3 3 2 3 2 1 0 0 1 1 1 2 2 2 3 2 2 2 2 3 4 5 5 4 4 2 3 3 2 2 3 4 4 3 3 3 3 4 4 4 4 3 3 3 4 5 6 8 9
Wind_Direction
266 264 265 267 269 267 268 276 284 276 280 287 281 298 309 318 319 339 285 239 245 256 283 263 269 267 263 264 266 16 265 174 228 223 238 200 230 195 210 220 202 217 201 209 185 227 240 145 144 257 5 322 286 321
260 260 260 262 262 260 256 262 269 275 280 277 276 275 293 283 314 336 272 262 199 237 295 291 279 267 258 257 292 220 325 291 316 267 202 162 200 179 203 218 177 222 225 238 223 271 82 245 269 279 265 282 291 298
259 258 259 256 256 257 250 257 262 262 275 269 277 269 282 251 276 281 291 299 244 253 257 247 250 256 229 235 231 249 215 248 233 319 318 335 255 180 199 216 233 221 179 241 237 194 273 291 297 282 273 250 259 272
259 259 256 254 257 254 253 250 259 256 265 261 273 264 241 253 245 276 254 284 245 286 272 275 295 254 253 233 220 220 232 112 54 258 254 237 241 202 236 321 259 293 162 227 253 280 302 266 257 327 326 262 244 242
268 263 260 255 258 250 250 242 246 251 255 262 262 261 260 255 264 279 238 247 238 248 292 299 305 280 257 237 213 212 217 221 227 238 223 229 228 203 192 258 254 214 230 239 259 271 262 285 307 305 311 289 224 211
270 269 258 253 252 247 248 244 247 249 255 256 256 254 267 249 151 326 271 198 207 189 283 283 310 255 238 203 209 213 206 196 205 207 225 222 214 223 235 251 251 239 244 257 264 273 264 285 298 299 269 232 198 196
285 267 271 255 250 243 242 236 239 241 242 250 255 252 262 246 185 223 299 18 251 158 241 268 262 224 230 191 153 157 178 180 195 212 226 232 193 191 239 250 255 256 262 280 259 267 277 274 273 335 254 220 190 193
284 284 255 256 252 239 230 221 227 231 235 245 249 256 259 240 263 260 253 220 164 189 228 260 267 273 176 174 155 151 149 173 184 216 195 213 141 208 251 259 265 282 281 275 294 272 256 280 289 277 206 177 188 184
277 274 278 250 245 237 213 209 217 226 239 240 270 286 281 201 215 218 220 151 165 264 247 217 251 303 298 167 129 170 181 171 128 211 202 182 174 221 239 263 278 287 336 324 317 288 278 267 283 241 200 194 209 199
268 273 269 250 232 225 207 199 207 223 187 147 159 199 215 209 154 146 123 168 195 208 225 253 256 255 302 340 181 159 199 146 179 176 135 216 241 258 258 264 291 335 348 336 332 346 349 1 330 238 211 211 226 225
264 273 263 244 227 215 204 189 175 134 140 182 220 226 23 259 178 198 209 142 212 225 220 227 226 232 199 261 274 228 148 153 201 142 220 189 238 208 12 318 4 343 321 322 311 315 317 302 283 281 202 222 218 210
269 276 254 212 196 201 183 176 157 167 197 270 338 281 250 210 212 228 212 161 215 224 193 209 201 206 244 235 261 81 112 201 197 148 209 211 77 353 351 36 12 354 1 346 316 330 341 315 257 245 239 215 209 199
269 260 199 197 191 167 171 164 147 116 71 343 220 284 214 174 216 230 206 187 220 208 183 206 200 199 180 218 113 158 222 148 141 200 193 83 35 49 42 42 23 0 354 355 343 355 331 325 153 185 157 152 130 149
239 187 180 171 162 152 151 151 143 134 176 241 130 265 222 182 226 222 243 241 207 176 243 235 233 213 164 180 119 218 167 190 197 197 96 138 157 66 25 8 355 347 339 8 17 2 336 256 206 73 88 57 155 149
162 162 163 156 151 157 147 147 150 185 158 260 173 230 220 257 258 264 280 268 247 185 196 284 219 238 162 145 223 187 191 155 177 92 103 117 177 19 19 8 356 351 7 29 19 2 351 57 81 84 60 52 136 113
131 107 141 151 149 141 142 137 152 164 242 229 233 258 285 265 270 243 246 268 332 215 167 220 244 211 162 238 196 143 156 78 71 61 64 125 133 44 25 3 0 9 21 29 28 31 50 80 119 86 58 52 78 90
110 117 163 147 141 146 155 179 134 204 247 239 240 239 257 268 267 285 305 203 342 203 240 221 196 78 133 182 97 20 50 83 93 89 70 25 14 19 42 91 72 62 43 49 64 69 81 93 93 79 63 57 76 75
79 153 150 137 133 130 211 206 244 245 256 255 267 280 253 252 268 268 255 223 206 212 212 335 78 143 58 83 88 91 88 104 80 62 46 30 40 65 83 79 74 83 70 66 71 74 79 80 73 60 66 79 89 80
145 146 150 146 137 175 189 204 226 263 252 253 269 250 259 275 259 287 300 289 216 191 287 59 43 39 56 39 11 86 115 110 101 81 64 48 69 76 70 75 83 74 61 55 60 74 83 103 112 96 85 76 71 68
104 122 153 166 354 227 217 198 218 256 268 290 264 282 265 244 254 284 326 21 41 56 43 37 44 17 56 55 18 42 83 116 128 109 75 50 50 68 68 88 89 76 78 97 95 88 101 94 88 87 87 107 114 96
90 123 150 274 265 224 282 188 224 248 307 304 295 309 305 309 351 37 38 338 56 35 50 45 57 357 339 334 326 96 105 115 88 62 89 86 43 53 52 27 57 45 51 49 69 76 59 60 77 97 91 79 80 81
95 158 156 214 272 261 252 82 306 306 273 301 309 318 347 39 30 25 338 46 48 70 337 356 340 345 35 62 65 76 103 93 88 83 59 93 82 48 46 4 48 63 48 38 42 60 60 58 78 92 97 100 99 97
131 129 224 236 266 3 280 26 331 315 307 347 321 5 24 34 9 309 63 37 39 12 335 310 355 67 96 82 88 85 88 109 99 94 94 83 62 70 63 36 52 52 51 43 28 34 48 43 90 106 112 112 109 101
36 359 314 297 204 264 198 217 195 252 213 323 359 63 23 345 330 58 60 35 345 2 37 65 103 98 87 77 65 61 50 91 97 96 103 126 106 86 72 71 65 57 34 24 40 50 64 81 115 108 105 101 97 91
214 191 230 233 242 255 242 172 222 222 57 29 49 67 6 335 59 59 40 2 7 24 32 66 90 70 85 92 96 73 351 111 128 119 100 107 120 129 100 77 63 43 10 42 54 69 77 85 91 96 95 88 84 73
304 143 145 358 105 301 14 49 39 28 37 68 55 37 10 53 48 45 28 337 1 17 25 42 97 87 64 32 69 97 74 304 159 135 116 157 47 59 80 59 49 67 32 30 53 82 94 88 93 94 97 95 76 68
34 357 1 30 321 13 78 57 38 47 57 42 37 30 26 65 53 20 358 13 356 348 341 9 57 73 60 55 39 15 21 9 44 81 84 67 53 33 24 46 55 42 17 42 66 63 97 103 102 101 115 109 86 59
38 27 14 352 34 22 65 47 43 36 31 15 54 47 60 53 97 212 119 10 350 32 65 63 60 60 55 72 54 58 76 91 97 100 108 89 69 56 40 53 46 23 38 45 70 82 78 67 54 32 230 238 94 15
34 344 336 49 53 55 37 20 56 48 347 349 79 85 87 71 72 307 330 322 316 130 94 81 62 77 81 76 56 40 26 4 272 67 50 45 34 43 15 5 19 45 84 99 52 55 71 61 51 45 40 11 347 320
22 338 43 37 31 30 18 13 14 13 43 68 88 108 85 61 7 337 32 112 134 127 104 85 74 70 65 62 66 60 43 31 25 28 56 53 32 355 351 354 349 65 97 115 119 118 140 168 157 300 343 338 334 328
337 13 46 37 52 16 354 340 46 65 72 76 79 95 97 105 66 43 45 58 104 113 112 103 88 59 56 49 37 46 75 53 54 58 53 56 34 23 18 35 44 79 97 99 92 52 19 2 359 350 355 352 355 337
22 30 25 57 44 354 16 38 28 46 37 43 51 40 64 61 62 52 27 356 46 94 80 108 97 94 84 83 75 73 62 92 82 68 57 51 47 36 39 45 63 66 75 67 41 15 2 353 356 357 356 355 348 343
16 35 59 31 29 39 33 20 40 74 66 180 128 83 69 37 85 93 86 23 346 14 69 88 90 113 113 102 107 112 112 99 76 20 18 20 13 355 7 46 46 32 20 359 345 331 317 335 349 352 350 350 349 346